Time,TemperatureF,DewpointF,PressureIn,WindDirection,WindDirectionDegrees,WindSpeedMPH,WindSpeedGustMPH,Humidity,HourlyPrecipIn,Conditions,Clouds,dailyrainin,SoftwareType,DateUTC
2013-06-19 00:00:00,50.5,38.8,29.70,NE,45,0.0,0.0,64,0.00,,,-99.99,VWS V12.07,2013-06-19 05:00:00,
2013-06-19 00:05:00,50.5,39.2,29.70,NE,45,0.0,0.0,65,0.00,,,-99.99,VWS V12.07,2013-06-19 05:05:00,
2013-06-19 00:10:00,50.3,39.0,29.69,NE,45,0.0,0.0,65,0.00,,,-99.99,VWS V12.07,2013-06-19 05:10:00,
2013-06-19 00:15:00,50.1,38.8,29.69,NE,45,0.0,0.0,65,0.00,,,-99.99,VWS V12.07,2013-06-19 05:15:00,
2013-06-19 00:20:00,50.0,38.7,29.69,NE,45,0.0,0.0,65,0.00,,,-99.99,VWS V12.07,2013-06-19 05:20:00,
2013-06-19 00:25:00,49.8,38.5,29.70,NE,45,0.0,0.0,65,0.00,,,-99.99,VWS V12.07,2013-06-19 05:25:00,
2013-06-19 00:30:00,49.8,38.9,29.70,NE,45,0.0,0.0,66,0.00,,,-99.99,VWS V12.07,2013-06-19 05:30:00,
2013-06-19 00:35:00,49.6,38.7,29.70,NE,45,0.0,0.0,66,0.00,,,-99.99,VWS V12.07,2013-06-19 05:35:00,
2013-06-19 00:40:00,49.6,38.7,29.70,NE,45,0.0,0.0,66,0.00,,,-99.99,VWS V12.07,2013-06-19 05:40:00,
2013-06-19 00:45:00,49.4,38.9,29.70,NE,45,0.0,0.0,67,0.00,,,-99.99,VWS V12.07,2013-06-19 05:45:00,
2013-06-19 00:50:00,49.2,38.7,29.71,NE,45,0.0,0.0,67,0.00,,,-99.99,VWS V12.07,2013-06-19 05:50:00,
2013-06-19 01:00:00,48.9,38.8,29.72,NE,45,0.0,0.0,68,0.00,,,-99.99,VWS V12.07,2013-06-19 06:00:00,
2013-06-19 01:05:00,48.7,38.6,29.72,NE,45,0.0,0.0,68,0.00,,,-99.99,VWS V12.07,2013-06-19 06:05:00,
2013-06-19 01:10:00,48.5,38.4,29.72,NE,45,0.0,0.0,68,0.00,,,-99.99,VWS V12.07,2013-06-19 06:10:00,
2013-06-19 01:15:00,48.3,38.2,29.72,NE,45,0.0,0.0,68,0.00,,,-99.99,VWS V12.07,2013-06-19 06:15:00,
2013-06-19 01:20:00,48.0,38.3,29.72,NE,45,0.0,0.0,69,0.00,,,-99.99,VWS V12.07,2013-06-19 06:20:00,
2013-06-19 01:25:00,47.8,38.1,29.72,NE,45,0.0,0.0,69,0.00,,,-99.99,VWS V12.07,2013-06-19 06:25:00,
2013-06-19 01:30:00,47.3,37.7,29.72,NE,45,0.0,0.0,69,0.00,,,-99.99,VWS V12.07,2013-06-19 06:30:00,
2013-06-19 01:35:00,47.1,37.5,29.72,NE,45,0.0,0.0,69,0.00,,,-99.99,VWS V12.07,2013-06-19 06:35:00,
2013-06-19 01:40:00,46.9,37.6,29.72,NE,45,0.0,0.0,70,0.00,,,-99.99,VWS V12.07,2013-06-19 06:40:00,
2013-06-19 01:45:00,46.7,37.5,29.72,NE,45,0.0,0.0,70,0.00,,,-99.99,VWS V12.07,2013-06-19 06:45:00,
2013-06-19 01:50:00,46.5,37.3,29.73,NE,45,0.0,0.0,70,0.00,,,-99.99,VWS V12.07,2013-06-19 06:50:00,
2013-06-19 01:55:00,46.2,37.3,29.72,NE,45,0.0,0.0,71,0.00,,,-99.99,VWS V12.07,2013-06-19 06:55:00,
2013-06-19 02:00:00,46.2,37.3,29.72,NE,45,0.0,0.0,71,0.00,,,-99.99,VWS V12.07,2013-06-19 07:00:00,
2013-06-19 02:05:00,46.0,37.1,29.72,NE,45,0.0,0.0,71,0.00,,,-99.99,VWS V12.07,2013-06-19 07:05:00,
2013-06-19 02:10:00,45.6,36.8,29.72,NE,45,0.0,0.0,71,0.00,,,-99.99,VWS V12.07,2013-06-19 07:10:00,
2013-06-19 02:15:00,45.5,36.7,29.72,NE,45,0.0,0.0,71,0.00,,,-99.99,VWS V12.07,2013-06-19 07:15:00,
2013-06-19 02:20:00,45.3,36.8,29.72,NE,45,0.0,0.0,72,0.00,,,-99.99,VWS V12.07,2013-06-19 07:20:00,
2013-06-19 02:25:00,45.1,36.6,29.71,NE,45,0.0,0.0,72,0.00,,,-99.99,VWS V12.07,2013-06-19 07:25:00,
2013-06-19 02:30:00,44.9,36.4,29.72,NE,45,0.0,0.0,72,0.00,,,-99.99,VWS V12.07,2013-06-19 07:30:00,
2013-06-19 02:35:00,44.7,36.6,29.72,NE,45,0.0,0.0,73,0.00,,,-99.99,VWS V12.07,2013-06-19 07:35:00,
2013-06-19 02:40:00,44.6,36.5,29.72,NE,45,0.0,0.0,73,0.00,,,-99.99,VWS V12.07,2013-06-19 07:40:00,
2013-06-19 02:45:00,44.4,36.3,29.72,NE,45,0.0,0.0,73,0.00,,,-99.99,VWS V12.07,2013-06-19 07:45:00,
2013-06-19 02:50:00,44.2,36.1,29.72,NE,45,0.0,0.0,73,0.00,,,-99.99,VWS V12.07,2013-06-19 07:50:00,
2013-06-19 02:55:00,44.0,35.9,29.72,NE,45,0.0,0.0,73,0.00,,,-99.99,VWS V12.07,2013-06-19 07:55:00,
2013-06-19 03:00:00,43.8,36.1,29.72,NE,45,0.0,0.0,74,0.00,,,-99.99,VWS V12.07,2013-06-19 08:00:00,
2013-06-19 03:05:00,43.7,36.0,29.72,NE,45,0.0,0.0,74,0.00,,,-99.99,VWS V12.07,2013-06-19 08:05:00,
2013-06-19 03:10:00,43.5,35.8,29.72,NE,45,0.0,0.0,74,0.00,,,-99.99,VWS V12.07,2013-06-19 08:10:00,
2013-06-19 03:15:00,43.5,35.8,29.72,NE,45,0.0,0.0,74,0.00,,,-99.99,VWS V12.07,2013-06-19 08:15:00,
2013-06-19 03:20:00,43.3,35.6,29.73,NE,45,0.0,0.0,74,0.00,,,-99.99,VWS V12.07,2013-06-19 08:20:00,
2013-06-19 03:25:00,43.1,35.4,29.73,NE,45,0.0,0.0,74,0.00,,,-99.99,VWS V12.07,2013-06-19 08:25:00,
2013-06-19 03:30:00,43.1,35.7,29.73,NE,45,0.0,0.0,75,0.00,,,-99.99,VWS V12.07,2013-06-19 08:30:00,
2013-06-19 03:35:00,42.9,35.5,29.73,NE,45,0.0,0.0,75,0.00,,,-99.99,VWS V12.07,2013-06-19 08:35:00,
2013-06-19 03:40:00,42.8,35.4,29.73,NE,45,0.0,0.0,75,0.00,,,-99.99,VWS V12.07,2013-06-19 08:40:00,
2013-06-19 03:45:00,42.6,35.2,29.73,NE,45,0.0,0.0,75,0.00,,,-99.99,VWS V12.07,2013-06-19 08:45:00,
2013-06-19 03:50:00,42.6,35.6,29.73,NE,45,0.0,0.0,76,0.00,,,-99.99,VWS V12.07,2013-06-19 08:50:00,
2013-06-19 03:55:00,42.4,35.4,29.73,NE,45,0.0,0.0,76,0.00,,,-99.99,VWS V12.07,2013-06-19 08:55:00,
2013-06-19 04:00:00,42.4,35.4,29.73,NE,45,0.0,0.0,76,0.00,,,-99.99,VWS V12.07,2013-06-19 09:00:00,
2013-06-19 04:05:00,42.2,35.2,29.73,NE,45,0.0,0.0,76,0.00,,,-99.99,VWS V12.07,2013-06-19 09:05:00,
2013-06-19 04:10:00,42.0,35.0,29.73,NE,45,0.0,0.0,76,0.00,,,-99.99,VWS V12.07,2013-06-19 09:10:00,
2013-06-19 04:15:00,42.0,35.0,29.73,NE,45,0.0,0.0,76,0.00,,,-99.99,VWS V12.07,2013-06-19 09:15:00,
2013-06-19 04:20:00,41.9,34.9,29.73,NE,45,0.0,0.0,76,0.00,,,-99.99,VWS V12.07,2013-06-19 09:20:00,
2013-06-19 04:25:00,41.9,35.2,29.73,NE,45,0.0,0.0,77,0.00,,,-99.99,VWS V12.07,2013-06-19 09:25:00,
2013-06-19 04:30:00,41.7,35.0,29.73,NE,45,0.0,0.0,77,0.00,,,-99.99,VWS V12.07,2013-06-19 09:30:00,
2013-06-19 04:35:00,41.7,35.0,29.73,NE,45,0.0,0.0,77,0.00,,,-99.99,VWS V12.07,2013-06-19 09:35:00,
2013-06-19 04:40:00,41.7,35.0,29.73,NE,45,0.0,0.0,77,0.00,,,-99.99,VWS V12.07,2013-06-19 09:40:00,
2013-06-19 04:45:00,41.5,34.8,29.73,NE,45,0.0,0.0,77,0.00,,,-99.99,VWS V12.07,2013-06-19 09:45:00,
2013-06-19 04:50:00,41.5,34.8,29.73,NE,45,0.0,0.0,77,0.00,,,-99.99,VWS V12.07,2013-06-19 09:50:00,
2013-06-19 04:55:00,41.5,34.8,29.73,NE,45,0.0,0.0,77,0.00,,,-99.99,VWS V12.07,2013-06-19 09:55:00,
2013-06-19 05:00:00,41.3,34.7,29.73,NE,45,0.0,0.0,77,0.00,,,-99.99,VWS V12.07,2013-06-19 10:00:00,
2013-06-19 05:05:00,41.1,34.5,29.73,NE,45,0.0,0.0,77,0.00,,,-99.99,VWS V12.07,2013-06-19 10:05:00,
2013-06-19 05:10:00,41.1,34.5,29.73,NE,45,0.0,0.0,77,0.00,,,-99.99,VWS V12.07,2013-06-19 10:10:00,
2013-06-19 05:15:00,41.1,34.8,29.73,NE,45,0.0,0.0,78,0.00,,,-99.99,VWS V12.07,2013-06-19 10:15:00,
2013-06-19 05:20:00,41.0,34.7,29.73,NE,45,0.0,0.0,78,0.00,,,-99.99,VWS V12.07,2013-06-19 10:20:00,
2013-06-19 05:25:00,41.0,34.7,29.73,NE,45,0.0,0.0,78,0.00,,,-99.99,VWS V12.07,2013-06-19 10:25:00,
2013-06-19 05:30:00,40.8,34.5,29.73,NE,45,0.0,0.0,78,0.00,,,-99.99,VWS V12.07,2013-06-19 10:30:00,
2013-06-19 05:35:00,40.8,34.5,29.73,NE,45,0.0,0.0,78,0.00,,,-99.99,VWS V12.07,2013-06-19 10:35:00,
2013-06-19 05:40:00,40.8,34.5,29.73,NE,45,0.0,0.0,78,0.00,,,-99.99,VWS V12.07,2013-06-19 10:40:00,
2013-06-19 05:45:00,41.0,35.0,29.73,NE,45,0.0,0.0,79,0.00,,,-99.99,VWS V12.07,2013-06-19 10:45:00,
2013-06-19 05:50:00,41.5,35.5,29.73,NE,45,0.0,0.0,79,0.00,,,-99.99,VWS V12.07,2013-06-19 10:50:00,
2013-06-19 05:55:00,42.0,36.3,29.73,NE,45,0.0,0.0,80,0.00,,,-99.99,VWS V12.07,2013-06-19 10:55:00,
2013-06-19 06:00:00,44.0,38.5,29.73,NE,45,0.0,0.0,81,0.00,,,-99.99,VWS V12.07,2013-06-19 11:00:00,
2013-06-19 06:05:00,45.6,40.1,29.73,NE,45,0.0,0.0,81,0.00,,,-99.99,VWS V12.07,2013-06-19 11:05:00,
2013-06-19 06:10:00,47.1,41.6,29.73,NE,45,0.0,0.0,81,0.00,,,-99.99,VWS V12.07,2013-06-19 11:10:00,
2013-06-19 06:15:00,48.7,42.5,29.73,NE,45,0.0,0.0,79,0.00,,,-99.99,VWS V12.07,2013-06-19 11:15:00,
2013-06-19 06:20:00,50.1,43.2,29.73,NE,45,0.0,0.0,77,0.00,,,-99.99,VWS V12.07,2013-06-19 11:20:00,
2013-06-19 06:25:00,50.5,43.2,29.73,NE,45,0.0,0.0,76,0.00,,,-99.99,VWS V12.07,2013-06-19 11:25:00,
2013-06-19 06:30:00,50.7,43.1,29.73,NE,45,0.0,0.0,75,0.00,,,-99.99,VWS V12.07,2013-06-19 11:30:00,
2013-06-19 06:35:00,50.7,42.7,29.73,NE,45,0.0,0.0,74,0.00,,,-99.99,VWS V12.07,2013-06-19 11:35:00,
2013-06-19 06:40:00,50.5,42.5,29.74,NE,45,0.0,0.0,74,0.00,,,-99.99,VWS V12.07,2013-06-19 11:40:00,
2013-06-19 06:45:00,50.5,42.5,29.74,NE,45,0.0,0.0,74,0.00,,,-99.99,VWS V12.07,2013-06-19 11:45:00,
2013-06-19 06:50:00,50.5,42.5,29.75,NE,45,0.0,0.0,74,0.00,,,-99.99,VWS V12.07,2013-06-19 11:50:00,
2013-06-19 06:55:00,50.7,42.7,29.74,NE,45,0.0,0.0,74,0.00,,,-99.99,VWS V12.07,2013-06-19 11:55:00,
2013-06-19 07:00:00,50.9,42.9,29.74,NE,45,0.0,0.0,74,0.00,,,-99.99,VWS V12.07,2013-06-19 12:00:00,
2013-06-19 07:05:00,51.0,43.0,29.75,NE,45,0.0,0.0,74,0.00,,,-99.99,VWS V12.07,2013-06-19 12:05:00,
2013-06-19 07:10:00,51.4,43.4,29.74,NE,45,0.0,0.0,74,0.00,,,-99.99,VWS V12.07,2013-06-19 12:10:00,
2013-06-19 07:15:00,51.9,43.5,29.75,NE,45,0.0,0.0,73,0.00,,,-99.99,VWS V12.07,2013-06-19 12:15:00,
2013-06-19 07:20:00,52.3,43.9,29.75,NE,45,0.0,0.0,73,0.00,,,-99.99,VWS V12.07,2013-06-19 12:20:00,
2013-06-19 07:25:00,52.7,44.3,29.75,NE,45,0.0,0.0,73,0.00,,,-99.99,VWS V12.07,2013-06-19 12:25:00,
2013-06-19 07:30:00,53.4,44.6,29.75,SW,225,0.0,2.0,72,0.00,,,-99.99,VWS V12.07,2013-06-19 12:30:00,
2013-06-19 07:35:00,53.7,44.9,29.75,SW,225,1.3,1.3,72,0.00,,,-99.99,VWS V12.07,2013-06-19 12:35:00,
2013-06-19 07:40:00,54.3,45.1,29.74,SW,225,0.8,1.3,71,0.00,,,-99.99,VWS V12.07,2013-06-19 12:40:00,
2013-06-19 07:45:00,55.0,45.8,29.74,WSW,248,0.0,1.7,71,0.00,,,-99.99,VWS V12.07,2013-06-19 12:45:00,
2013-06-19 07:50:00,55.5,45.9,29.74,WSW,248,0.0,1.3,70,0.00,,,-99.99,VWS V12.07,2013-06-19 12:50:00,
2013-06-19 07:55:00,55.9,45.9,29.75,SW,225,0.0,1.3,69,0.00,,,-99.99,VWS V12.07,2013-06-19 12:55:00,
2013-06-19 08:00:00,56.4,45.6,29.75,SSW,202,0.0,2.4,67,0.00,,,-99.99,VWS V12.07,2013-06-19 13:00:00,
2013-06-19 08:05:00,57.0,46.2,29.75,SSW,202,0.0,0.0,67,0.00,,,-99.99,VWS V12.07,2013-06-19 13:05:00,
2013-06-19 08:10:00,57.5,46.2,29.75,SSW,202,2.4,2.4,66,0.00,,,-99.99,VWS V12.07,2013-06-19 13:10:00,
2013-06-19 08:15:00,57.9,45.8,29.75,SW,225,0.6,5.3,64,0.00,,,-99.99,VWS V12.07,2013-06-19 13:15:00,
2013-06-19 08:20:00,58.2,45.7,29.75,SSW,202,3.3,4.4,63,0.00,,,-99.99,VWS V12.07,2013-06-19 13:20:00,
2013-06-19 08:25:00,58.6,45.6,29.75,SW,225,6.2,6.2,62,0.00,,,-99.99,VWS V12.07,2013-06-19 13:25:00,
2013-06-19 08:30:00,58.8,44.5,29.74,SSW,202,0.0,6.2,59,0.00,,,-99.99,VWS V12.07,2013-06-19 13:30:00,
2013-06-19 08:35:00,58.8,44.5,29.74,SSW,202,4.2,4.4,59,0.00,,,-99.99,VWS V12.07,2013-06-19 13:35:00,
2013-06-19 08:40:00,59.1,44.3,29.75,SW,225,6.2,6.2,58,0.00,,,-99.99,VWS V12.07,2013-06-19 13:40:00,
2013-06-19 08:45:00,59.7,44.9,29.74,SSW,202,0.6,6.2,58,0.00,,,-99.99,VWS V12.07,2013-06-19 13:45:00,
2013-06-19 08:50:00,60.0,45.2,29.74,SSW,202,3.1,3.1,58,0.00,,,-99.99,VWS V12.07,2013-06-19 13:50:00,
2013-06-19 08:55:00,60.4,45.1,29.74,SSW,202,5.3,5.3,57,0.00,,,-99.99,VWS V12.07,2013-06-19 13:55:00,
2013-06-19 09:00:00,60.9,45.1,29.74,SW,225,2.9,5.3,56,0.00,,,-99.99,VWS V12.07,2013-06-19 14:00:00,
2013-06-19 09:05:00,61.1,44.8,29.74,South,180,0.0,4.2,55,0.00,,,-99.99,VWS V12.07,2013-06-19 14:05:00,
2013-06-19 09:10:00,61.5,45.2,29.74,SSW,202,0.0,5.5,55,0.00,,,-99.99,VWS V12.07,2013-06-19 14:10:00,
2013-06-19 09:15:00,61.7,45.4,29.74,SSW,202,3.3,5.5,55,0.00,,,-99.99,VWS V12.07,2013-06-19 14:15:00,
2013-06-19 09:20:00,62.2,45.8,29.74,SSW,202,1.7,4.6,55,0.00,,,-99.99,VWS V12.07,2013-06-19 14:20:00,
2013-06-19 09:25:00,62.4,45.5,29.74,SSW,202,1.5,4.6,54,0.00,,,-99.99,VWS V12.07,2013-06-19 14:25:00,
2013-06-19 09:30:00,62.7,45.8,29.74,SSW,202,3.8,4.6,54,0.00,,,-99.99,VWS V12.07,2013-06-19 14:30:00,
2013-06-19 09:35:00,62.9,46.0,29.74,SSW,202,0.0,3.8,54,0.00,,,-99.99,VWS V12.07,2013-06-19 14:35:00,
2013-06-19 09:40:00,63.1,46.2,29.75,SSW,202,5.1,6.4,54,0.00,,,-99.99,VWS V12.07,2013-06-19 14:40:00,
2013-06-19 09:45:00,63.5,46.6,29.74,SW,225,2.0,6.4,54,0.00,,,-99.99,VWS V12.07,2013-06-19 14:45:00,
2013-06-19 09:50:00,63.6,46.7,29.74,SSW,202,0.0,3.8,54,0.00,,,-99.99,VWS V12.07,2013-06-19 14:50:00,
2013-06-19 09:55:00,63.8,46.8,29.74,SSW,202,2.4,3.8,54,0.00,,,-99.99,VWS V12.07,2013-06-19 14:55:00,
2013-06-19 10:00:00,64.0,47.0,29.74,SSW,202,3.8,3.8,54,0.00,,,-99.99,VWS V12.07,2013-06-19 15:00:00,
2013-06-19 10:05:00,64.2,47.2,29.73,SSW,202,0.0,3.8,54,0.00,,,-99.99,VWS V12.07,2013-06-19 15:05:00,
2013-06-19 10:10:00,64.5,47.0,29.73,SW,225,3.3,3.8,53,0.00,,,-99.99,VWS V12.07,2013-06-19 15:10:00,
2013-06-19 10:15:00,64.5,47.0,29.73,SSW,202,0.0,5.3,53,0.00,,,-99.99,VWS V12.07,2013-06-19 15:15:00,
2013-06-19 10:20:00,64.7,47.2,29.73,SSW,202,5.1,5.1,53,0.00,,,-99.99,VWS V12.07,2013-06-19 15:20:00,
2013-06-19 10:25:00,64.7,47.2,29.73,SSW,202,0.0,5.1,53,0.00,,,-99.99,VWS V12.07,2013-06-19 15:25:00,
2013-06-19 10:30:00,65.1,47.6,29.73,SW,225,4.0,5.1,53,0.00,,,-99.99,VWS V12.07,2013-06-19 15:30:00,
2013-06-19 10:35:00,65.4,47.8,29.72,SSW,202,4.9,4.9,53,0.00,,,-99.99,VWS V12.07,2013-06-19 15:35:00,
2013-06-19 10:40:00,65.8,47.7,29.72,SSW,202,6.0,6.0,52,0.00,,,-99.99,VWS V12.07,2013-06-19 15:40:00,
2013-06-19 10:45:00,66.0,47.9,29.72,SSW,202,4.4,6.7,52,0.00,,,-99.99,VWS V12.07,2013-06-19 15:45:00,
2013-06-19 10:50:00,66.0,47.4,29.72,SSW,202,0.0,5.5,51,0.00,,,-99.99,VWS V12.07,2013-06-19 15:50:00,
2013-06-19 10:55:00,66.2,47.6,29.72,SSW,202,3.3,5.5,51,0.00,,,-99.99,VWS V12.07,2013-06-19 15:55:00,
2013-06-19 11:00:00,66.5,47.8,29.72,South,180,0.0,5.5,51,0.00,,,-99.99,VWS V12.07,2013-06-19 16:00:00,
2013-06-19 11:05:00,66.7,48.0,29.72,SSW,202,6.0,6.0,51,0.00,,,-99.99,VWS V12.07,2013-06-19 16:05:00,
2013-06-19 11:10:00,66.9,47.7,29.72,SSW,202,0.0,6.0,50,0.00,,,-99.99,VWS V12.07,2013-06-19 16:10:00,
2013-06-19 11:15:00,67.1,48.4,29.72,SSW,202,0.0,6.0,51,0.00,,,-99.99,VWS V12.07,2013-06-19 16:15:00,
2013-06-19 11:20:00,67.2,48.5,29.71,SSW,202,1.1,1.1,51,0.00,,,-99.99,VWS V12.07,2013-06-19 16:20:00,
2013-06-19 11:25:00,67.6,48.3,29.72,WSW,248,2.2,2.2,50,0.00,,,-99.99,VWS V12.07,2013-06-19 16:25:00,
2013-06-19 11:30:00,67.8,48.5,29.72,South,180,2.4,4.0,50,0.00,,,-99.99,VWS V12.07,2013-06-19 16:30:00,
2013-06-19 11:35:00,68.0,48.2,29.72,SW,225,0.0,2.4,49,0.00,,,-99.99,VWS V12.07,2013-06-19 16:35:00,
2013-06-19 11:40:00,68.1,48.2,29.72,SW,225,4.0,4.0,49,0.00,,,-99.99,VWS V12.07,2013-06-19 16:40:00,
2013-06-19 11:45:00,68.1,48.2,29.72,West,270,2.0,4.0,49,0.00,,,-99.99,VWS V12.07,2013-06-19 16:45:00,
2013-06-19 11:50:00,68.1,48.2,29.72,SSW,202,1.3,3.1,49,0.00,,,-99.99,VWS V12.07,2013-06-19 16:50:00,
2013-06-19 11:55:00,67.8,48.0,29.72,WSW,248,0.0,3.1,49,0.00,,,-99.99,VWS V12.07,2013-06-19 16:55:00,
2013-06-19 12:00:00,67.8,48.0,29.72,SSW,202,4.4,4.6,49,0.00,,,-99.99,VWS V12.07,2013-06-19 17:00:00,
2013-06-19 12:10:00,67.6,47.8,29.72,SSW,202,0.0,7.6,49,0.00,,,-99.99,VWS V12.07,2013-06-19 17:10:00,
2013-06-19 12:15:00,67.4,47.6,29.72,SSW,202,1.3,7.6,49,0.00,,,-99.99,VWS V12.07,2013-06-19 17:15:00,
2013-06-19 12:20:00,67.2,47.4,29.72,WSW,248,4.4,4.4,49,0.00,,,-99.99,VWS V12.07,2013-06-19 17:20:00,
2013-06-19 12:25:00,67.2,47.4,29.71,SSW,202,6.0,6.0,49,0.00,,,-99.99,VWS V12.07,2013-06-19 17:25:00,
2013-06-19 12:30:00,67.6,48.3,29.71,NW,315,3.8,6.0,50,0.00,,,-99.99,VWS V12.07,2013-06-19 17:30:00,
2013-06-19 12:35:00,67.8,48.0,29.71,SSW,202,1.3,3.8,49,0.00,,,-99.99,VWS V12.07,2013-06-19 17:35:00,
2013-06-19 12:40:00,67.8,48.0,29.71,WSW,248,0.0,3.8,49,0.00,,,-99.99,VWS V12.07,2013-06-19 17:40:00,
2013-06-19 12:45:00,68.1,48.2,29.71,SSW,202,2.6,5.8,49,0.00,,,-99.99,VWS V12.07,2013-06-19 17:45:00,
2013-06-19 12:50:00,68.3,48.4,29.71,SSW,202,5.3,5.3,49,0.00,,,-99.99,VWS V12.07,2013-06-19 17:50:00,
2013-06-19 12:55:00,68.5,48.1,29.70,SW,225,5.5,5.5,48,0.00,,,-99.99,VWS V12.07,2013-06-19 17:55:00,
2013-06-19 13:00:00,68.7,48.2,29.70,WSW,248,5.3,5.5,48,0.00,,,-99.99,VWS V12.07,2013-06-19 18:00:00,
2013-06-19 13:05:00,68.9,47.9,29.70,SSE,158,2.4,5.3,47,0.00,,,-99.99,VWS V12.07,2013-06-19 18:05:00,
2013-06-19 13:10:00,69.0,48.5,29.70,SSW,202,6.0,6.0,48,0.00,,,-99.99,VWS V12.07,2013-06-19 18:10:00,
2013-06-19 13:15:00,69.4,48.3,29.70,SW,225,3.5,6.0,47,0.00,,,-99.99,VWS V12.07,2013-06-19 18:15:00,
2013-06-19 13:20:00,69.4,47.7,29.70,SW,225,0.0,3.5,46,0.00,,,-99.99,VWS V12.07,2013-06-19 18:20:00,
2013-06-19 13:25:00,69.4,48.3,29.70,SSW,202,0.0,3.5,47,0.00,,,-99.99,VWS V12.07,2013-06-19 18:25:00,
2013-06-19 13:30:00,69.4,48.3,29.70,SSW,202,0.0,4.4,47,0.00,,,-99.99,VWS V12.07,2013-06-19 18:30:00,
2013-06-19 13:35:00,69.6,48.5,29.70,SSW,202,0.0,3.5,47,0.00,,,-99.99,VWS V12.07,2013-06-19 18:35:00,
2013-06-19 13:40:00,69.6,48.5,29.70,SSW,202,0.0,3.5,47,0.00,,,-99.99,VWS V12.07,2013-06-19 18:40:00,
2013-06-19 13:45:00,69.9,48.8,29.69,SSW,202,6.7,6.7,47,0.00,,,-99.99,VWS V12.07,2013-06-19 18:45:00,
2013-06-19 13:50:00,69.9,48.8,29.69,West,270,0.0,6.7,47,0.00,,,-99.99,VWS V12.07,2013-06-19 18:50:00,
2013-06-19 13:55:00,69.9,48.8,29.69,SSW,202,1.3,6.7,47,0.00,,,-99.99,VWS V12.07,2013-06-19 18:55:00,
2013-06-19 14:00:00,70.3,49.1,29.69,SW,225,2.4,6.7,47,0.00,,,-99.99,VWS V12.07,2013-06-19 19:00:00,
2013-06-19 14:05:00,70.5,49.3,29.68,SW,225,4.0,6.4,47,0.00,,,-99.99,VWS V12.07,2013-06-19 19:05:00,
2013-06-19 14:10:00,70.7,50.1,29.69,SW,225,9.3,9.3,48,0.00,,,-99.99,VWS V12.07,2013-06-19 19:10:00,
2013-06-19 14:15:00,70.8,50.2,29.68,SSW,202,3.3,9.3,48,0.00,,,-99.99,VWS V12.07,2013-06-19 19:15:00,
2013-06-19 14:20:00,71.0,50.3,29.68,SSW,202,0.0,3.3,48,0.00,,,-99.99,VWS V12.07,2013-06-19 19:20:00,
2013-06-19 14:25:00,71.2,50.5,29.68,SSW,202,0.0,3.3,48,0.00,,,-99.99,VWS V12.07,2013-06-19 19:25:00,
2013-06-19 14:30:00,70.8,50.2,29.68,SSW,202,0.0,4.9,48,0.00,,,-99.99,VWS V12.07,2013-06-19 19:30:00,
2013-06-19 14:35:00,70.7,50.1,29.68,SSW,202,2.0,2.0,48,0.00,,,-99.99,VWS V12.07,2013-06-19 19:35:00,
2013-06-19 14:40:00,70.5,49.9,29.68,SSW,202,2.2,2.2,48,0.00,,,-99.99,VWS V12.07,2013-06-19 19:40:00,
2013-06-19 14:45:00,70.3,49.7,29.68,South,180,4.4,4.4,48,0.00,,,-99.99,VWS V12.07,2013-06-19 19:45:00,
2013-06-19 14:50:00,70.3,50.3,29.68,SSW,202,2.4,4.4,49,0.00,,,-99.99,VWS V12.07,2013-06-19 19:50:00,
2013-06-19 14:55:00,70.3,50.3,29.68,SSW,202,6.2,6.2,49,0.00,,,-99.99,VWS V12.07,2013-06-19 19:55:00,
2013-06-19 15:00:00,70.8,50.7,29.68,SSW,202,0.0,6.2,49,0.00,,,-99.99,VWS V12.07,2013-06-19 20:00:00,
2013-06-19 15:05:00,71.2,51.1,29.68,WSW,248,0.0,3.3,49,0.00,,,-99.99,VWS V12.07,2013-06-19 20:05:00,
2013-06-19 15:10:00,71.4,50.7,29.67,West,270,0.0,3.3,48,0.00,,,-99.99,VWS V12.07,2013-06-19 20:10:00,
2013-06-19 15:15:00,71.4,50.1,29.67,SSW,202,6.2,6.2,47,0.00,,,-99.99,VWS V12.07,2013-06-19 20:15:00,
2013-06-19 15:20:00,71.4,50.1,29.67,SSW,202,2.0,6.2,47,0.00,,,-99.99,VWS V12.07,2013-06-19 20:20:00,
2013-06-19 15:25:00,71.4,50.1,29.67,SSW,202,3.5,6.2,47,0.00,,,-99.99,VWS V12.07,2013-06-19 20:25:00,
2013-06-19 15:30:00,71.4,50.1,29.66,SSW,202,1.7,6.2,47,0.00,,,-99.99,VWS V12.07,2013-06-19 20:30:00,
2013-06-19 15:35:00,71.4,50.1,29.66,SSW,202,9.3,9.3,47,0.00,,,-99.99,VWS V12.07,2013-06-19 20:35:00,
2013-06-19 15:40:00,71.4,50.1,29.66,SSW,202,0.8,9.3,47,0.00,,,-99.99,VWS V12.07,2013-06-19 20:40:00,
2013-06-19 15:45:00,71.4,50.1,29.67,SSW,202,0.8,9.3,47,0.00,,,-99.99,VWS V12.07,2013-06-19 20:45:00,
2013-06-19 15:50:00,71.4,50.7,29.67,SSW,202,0.0,3.3,48,0.00,,,-99.99,VWS V12.07,2013-06-19 20:50:00,
2013-06-19 15:55:00,71.4,50.7,29.67,SW,225,7.1,7.1,48,0.00,,,-99.99,VWS V12.07,2013-06-19 20:55:00,
2013-06-19 16:00:00,71.4,50.7,29.67,SW,225,1.7,8.7,48,0.00,,,-99.99,VWS V12.07,2013-06-19 21:00:00,
2013-06-19 16:05:00,71.4,50.7,29.67,SSW,202,4.2,4.2,48,0.00,,,-99.99,VWS V12.07,2013-06-19 21:05:00,
2013-06-19 16:10:00,71.6,50.9,29.67,WSW,248,3.5,4.2,48,0.00,,,-99.99,VWS V12.07,2013-06-19 21:10:00,
2013-06-19 16:15:00,71.9,51.2,29.68,SSW,202,3.1,5.5,48,0.00,,,-99.99,VWS V12.07,2013-06-19 21:15:00,
2013-06-19 16:20:00,71.7,51.0,29.68,SSW,202,0.0,5.1,48,0.00,,,-99.99,VWS V12.07,2013-06-19 21:20:00,
2013-06-19 16:25:00,71.7,51.0,29.68,SSW,202,6.0,6.0,48,0.00,,,-99.99,VWS V12.07,2013-06-19 21:25:00,
2013-06-19 16:30:00,71.7,51.0,29.68,SW,225,2.0,6.0,48,0.00,,,-99.99,VWS V12.07,2013-06-19 21:30:00,
2013-06-19 16:35:00,71.4,50.7,29.68,SW,225,0.8,2.4,48,0.00,,,-99.99,VWS V12.07,2013-06-19 21:35:00,
2013-06-19 16:40:00,71.4,51.3,29.68,SSW,202,2.9,2.9,49,0.00,,,-99.99,VWS V12.07,2013-06-19 21:40:00,
2013-06-19 16:45:00,71.7,51.5,29.69,SW,225,7.3,7.3,49,0.00,,,-99.99,VWS V12.07,2013-06-19 21:45:00,
2013-06-19 16:50:00,72.1,51.9,29.69,SW,225,2.0,7.3,49,0.00,,,-99.99,VWS V12.07,2013-06-19 21:50:00,
2013-06-19 16:55:00,72.3,51.5,29.69,SSW,202,2.0,7.3,48,0.00,,,-99.99,VWS V12.07,2013-06-19 21:55:00,
2013-06-19 17:00:00,72.8,52.0,29.68,WNW,292,3.3,7.3,48,0.00,,,-99.99,VWS V12.07,2013-06-19 22:00:00,
2013-06-19 17:05:00,73.0,52.2,29.68,SSW,202,0.0,3.3,48,0.00,,,-99.99,VWS V12.07,2013-06-19 22:05:00,
2013-06-19 17:10:00,73.4,52.5,29.68,SSW,202,2.0,3.3,48,0.00,,,-99.99,VWS V12.07,2013-06-19 22:10:00,
2013-06-19 17:15:00,73.9,53.0,29.67,SSW,202,2.2,3.3,48,0.00,,,-99.99,VWS V12.07,2013-06-19 22:15:00,
2013-06-19 17:20:00,73.9,52.4,29.67,SSW,202,0.0,2.2,47,0.00,,,-99.99,VWS V12.07,2013-06-19 22:20:00,
2013-06-19 17:25:00,74.1,53.2,29.67,SW,225,2.9,5.8,48,0.00,,,-99.99,VWS V12.07,2013-06-19 22:25:00,
2013-06-19 17:30:00,74.1,52.6,29.67,SW,225,1.1,5.8,47,0.00,,,-99.99,VWS V12.07,2013-06-19 22:30:00,
2013-06-19 17:35:00,74.1,53.2,29.67,SW,225,0.0,1.5,48,0.00,,,-99.99,VWS V12.07,2013-06-19 22:35:00,
2013-06-19 17:40:00,74.4,53.5,29.67,SSW,202,1.1,1.5,48,0.00,,,-99.99,VWS V12.07,2013-06-19 22:40:00,
2013-06-19 17:45:00,74.3,52.8,29.67,SSW,202,2.9,5.8,47,0.00,,,-99.99,VWS V12.07,2013-06-19 22:45:00,
2013-06-19 17:50:00,74.1,52.6,29.67,WSW,248,2.0,2.9,47,0.00,,,-99.99,VWS V12.07,2013-06-19 22:50:00,
2013-06-19 17:55:00,74.1,53.2,29.66,SW,225,4.0,4.0,48,0.00,,,-99.99,VWS V12.07,2013-06-19 22:55:00,
2013-06-19 18:00:00,74.3,53.4,29.66,SSW,202,5.1,5.8,48,0.00,,,-99.99,VWS V12.07,2013-06-19 23:00:00,
2013-06-19 18:05:00,74.4,53.5,29.66,SSW,202,0.0,5.1,48,0.00,,,-99.99,VWS V12.07,2013-06-19 23:05:00,
2013-06-19 18:10:00,74.8,53.8,29.66,SSW,202,6.4,6.4,48,0.00,,,-99.99,VWS V12.07,2013-06-19 23:10:00,
2013-06-19 18:15:00,75.2,53.6,29.66,SSW,202,4.9,6.9,47,0.00,,,-99.99,VWS V12.07,2013-06-19 23:15:00,
2013-06-19 18:20:00,75.2,53.6,29.66,SW,225,1.7,5.3,47,0.00,,,-99.99,VWS V12.07,2013-06-19 23:20:00,
2013-06-19 18:25:00,75.3,53.7,29.66,SSW,202,2.0,5.3,47,0.00,,,-99.99,VWS V12.07,2013-06-19 23:25:00,
2013-06-19 18:30:00,75.2,53.6,29.67,SSW,202,4.2,5.3,47,0.00,,,-99.99,VWS V12.07,2013-06-19 23:30:00,
2013-06-19 18:35:00,75.3,53.7,29.66,South,180,4.2,4.2,47,0.00,,,-99.99,VWS V12.07,2013-06-19 23:35:00,
2013-06-19 18:40:00,75.3,53.7,29.67,SSW,202,3.8,4.2,47,0.00,,,-99.99,VWS V12.07,2013-06-19 23:40:00,
2013-06-19 18:45:00,75.2,54.2,29.67,SSW,202,3.3,4.2,48,0.00,,,-99.99,VWS V12.07,2013-06-19 23:45:00,
2013-06-19 18:50:00,75.0,54.0,29.67,SSW,202,2.6,3.8,48,0.00,,,-99.99,VWS V12.07,2013-06-19 23:50:00,
2013-06-19 18:55:00,75.0,54.0,29.67,SW,225,2.4,4.2,48,0.00,,,-99.99,VWS V12.07,2013-06-19 23:55:00,
2013-06-19 19:00:00,74.8,53.8,29.67,SSW,202,2.2,4.2,48,0.00,,,-99.99,VWS V12.07,2013-06-20 00:00:00,
2013-06-19 19:05:00,74.4,54.0,29.67,SSW,202,2.4,2.4,49,0.00,,,-99.99,VWS V12.07,2013-06-20 00:05:00,
2013-06-19 19:10:00,74.3,53.9,29.67,SW,225,0.4,2.4,49,0.00,,,-99.99,VWS V12.07,2013-06-20 00:10:00,
2013-06-19 19:15:00,73.9,53.6,29.67,SW,225,0.0,2.4,49,0.00,,,-99.99,VWS V12.07,2013-06-20 00:15:00,
2013-06-19 19:20:00,73.5,53.7,29.67,SW,225,2.9,2.9,50,0.00,,,-99.99,VWS V12.07,2013-06-20 00:20:00,
2013-06-19 19:25:00,73.4,53.7,29.67,SW,225,0.8,2.9,50,0.00,,,-99.99,VWS V12.07,2013-06-20 00:25:00,
2013-06-19 19:30:00,73.2,53.5,29.67,SW,225,4.4,4.4,50,0.00,,,-99.99,VWS V12.07,2013-06-20 00:30:00,
2013-06-19 19:35:00,73.2,54.0,29.67,SSW,202,0.0,4.4,51,0.00,,,-99.99,VWS V12.07,2013-06-20 00:35:00,
2013-06-19 19:40:00,73.0,53.8,29.67,SSW,202,0.0,4.4,51,0.00,,,-99.99,VWS V12.07,2013-06-20 00:40:00,
2013-06-19 19:45:00,72.6,53.5,29.67,SSW,202,0.0,4.4,51,0.00,,,-99.99,VWS V12.07,2013-06-20 00:45:00,
2013-06-19 19:50:00,72.3,53.2,29.67,SSW,202,0.0,0.0,51,0.00,,,-99.99,VWS V12.07,2013-06-20 00:50:00,
2013-06-19 19:55:00,72.1,53.5,29.67,SSW,202,0.0,0.0,52,0.00,,,-99.99,VWS V12.07,2013-06-20 00:55:00,
2013-06-19 20:00:00,71.4,52.9,29.67,SSW,202,0.0,0.0,52,0.00,,,-99.99,VWS V12.07,2013-06-20 01:00:00,
2013-06-19 20:05:00,71.2,53.2,29.67,SSW,202,0.0,0.0,53,0.00,,,-99.99,VWS V12.07,2013-06-20 01:05:00,
2013-06-19 20:10:00,70.3,52.9,29.67,SSW,202,0.0,0.0,54,0.00,,,-99.99,VWS V12.07,2013-06-20 01:10:00,
2013-06-19 20:15:00,69.9,53.0,29.67,SSW,202,0.0,0.0,55,0.00,,,-99.99,VWS V12.07,2013-06-20 01:15:00,
2013-06-19 20:20:00,69.6,53.2,29.66,SSW,202,0.0,0.0,56,0.00,,,-99.99,VWS V12.07,2013-06-20 01:20:00,
2013-06-19 20:25:00,68.7,52.4,29.67,SSW,202,0.0,0.0,56,0.00,,,-99.99,VWS V12.07,2013-06-20 01:25:00,
2013-06-19 20:30:00,68.1,52.3,29.66,SSW,202,0.0,0.0,57,0.00,,,-99.99,VWS V12.07,2013-06-20 01:30:00,
2013-06-19 20:35:00,67.8,52.5,29.67,SSW,202,0.0,0.0,58,0.00,,,-99.99,VWS V12.07,2013-06-20 01:35:00,
2013-06-19 20:40:00,67.1,51.8,29.67,SSW,202,0.0,0.0,58,0.00,,,-99.99,VWS V12.07,2013-06-20 01:40:00,
2013-06-19 20:45:00,66.5,51.8,29.67,SSW,202,0.0,0.0,59,0.00,,,-99.99,VWS V12.07,2013-06-20 01:45:00,
2013-06-19 20:50:00,66.0,51.3,29.67,SSW,202,0.0,0.0,59,0.00,,,-99.99,VWS V12.07,2013-06-20 01:50:00,
2013-06-19 20:55:00,65.4,51.2,29.67,SSW,202,0.0,0.0,60,0.00,,,-99.99,VWS V12.07,2013-06-20 01:55:00,
2013-06-19 21:00:00,65.1,50.9,29.67,SSW,202,0.0,0.0,60,0.00,,,-99.99,VWS V12.07,2013-06-20 02:00:00,
2013-06-19 21:05:00,64.7,50.5,29.67,SSW,202,0.0,0.0,60,0.00,,,-99.99,VWS V12.07,2013-06-20 02:05:00,
2013-06-19 21:10:00,64.2,50.5,29.67,SSW,202,0.0,0.0,61,0.00,,,-99.99,VWS V12.07,2013-06-20 02:10:00,
2013-06-19 21:15:00,64.0,50.7,29.67,SSW,202,0.0,0.0,62,0.00,,,-99.99,VWS V12.07,2013-06-20 02:15:00,
2013-06-19 21:20:00,63.5,50.7,29.67,SSW,202,0.0,0.0,63,0.00,,,-99.99,VWS V12.07,2013-06-20 02:20:00,
2013-06-19 21:25:00,63.1,50.3,29.68,SSW,202,0.0,0.0,63,0.00,,,-99.99,VWS V12.07,2013-06-20 02:25:00,
2013-06-19 21:30:00,62.6,49.8,29.68,SSW,202,0.0,0.0,63,0.00,,,-99.99,VWS V12.07,2013-06-20 02:30:00,
2013-06-19 21:35:00,62.4,50.1,29.68,SSW,202,0.0,0.0,64,0.00,,,-99.99,VWS V12.07,2013-06-20 02:35:00,
2013-06-19 21:40:00,61.8,49.5,29.68,SSW,202,0.0,0.0,64,0.00,,,-99.99,VWS V12.07,2013-06-20 02:40:00,
2013-06-19 21:45:00,61.5,49.6,29.69,SSW,202,0.0,0.0,65,0.00,,,-99.99,VWS V12.07,2013-06-20 02:45:00,
2013-06-19 21:50:00,61.3,49.9,29.69,SSW,202,0.0,0.0,66,0.00,,,-99.99,VWS V12.07,2013-06-20 02:50:00,
2013-06-19 21:55:00,60.9,49.5,29.69,SSW,202,0.0,0.0,66,0.00,,,-99.99,VWS V12.07,2013-06-20 02:55:00,
2013-06-19 22:00:00,60.6,49.2,29.69,SSW,202,0.0,0.0,66,0.00,,,-99.99,VWS V12.07,2013-06-20 03:00:00,
2013-06-19 22:05:00,60.4,49.0,29.69,SSW,202,0.0,0.0,66,0.00,,,-99.99,VWS V12.07,2013-06-20 03:05:00,
2013-06-19 22:10:00,60.2,48.8,29.69,SSW,202,0.0,0.0,66,0.00,,,-99.99,VWS V12.07,2013-06-20 03:10:00,
2013-06-19 22:15:00,60.0,49.0,29.69,SSW,202,0.0,0.0,67,0.00,,,-99.99,VWS V12.07,2013-06-20 03:15:00,
2013-06-19 22:20:00,59.9,48.9,29.69,SSW,202,0.0,0.0,67,0.00,,,-99.99,VWS V12.07,2013-06-20 03:20:00,
2013-06-19 22:25:00,59.7,48.7,29.69,SSW,202,0.0,0.0,67,0.00,,,-99.99,VWS V12.07,2013-06-20 03:25:00,
2013-06-19 22:30:00,59.5,48.5,29.69,SSW,202,0.0,0.0,67,0.00,,,-99.99,VWS V12.07,2013-06-20 03:30:00,
2013-06-19 22:35:00,59.5,48.9,29.70,SSW,202,0.0,0.0,68,0.00,,,-99.99,VWS V12.07,2013-06-20 03:35:00,
2013-06-19 22:40:00,59.3,48.8,29.70,SSW,202,0.0,0.0,68,0.00,,,-99.99,VWS V12.07,2013-06-20 03:40:00,
2013-06-19 22:45:00,59.1,48.6,29.70,SSW,202,0.0,0.0,68,0.00,,,-99.99,VWS V12.07,2013-06-20 03:45:00,
2013-06-19 22:50:00,59.1,48.6,29.70,SSW,202,0.0,0.0,68,0.00,,,-99.99,VWS V12.07,2013-06-20 03:50:00,
2013-06-19 22:55:00,58.8,48.7,29.70,SSW,202,0.0,0.0,69,0.00,,,-99.99,VWS V12.07,2013-06-20 03:55:00,
2013-06-19 23:00:00,58.8,48.7,29.70,SSW,202,0.0,0.0,69,0.00,,,-99.99,VWS V12.07,2013-06-20 04:00:00,
2013-06-19 23:05:00,58.8,48.7,29.70,SSW,202,0.0,0.0,69,0.00,,,-99.99,VWS V12.07,2013-06-20 04:05:00,
2013-06-19 23:10:00,58.8,48.7,29.70,SSW,202,0.0,0.0,69,0.00,,,-99.99,VWS V12.07,2013-06-20 04:10:00,
2013-06-19 23:15:00,58.8,48.7,29.70,SSW,202,0.0,0.0,69,0.00,,,-99.99,VWS V12.07,2013-06-20 04:15:00,
2013-06-19 23:20:00,58.6,48.5,29.70,SSW,202,0.0,0.0,69,0.00,,,-99.99,VWS V12.07,2013-06-20 04:20:00,
2013-06-19 23:25:00,58.4,48.7,29.70,SSW,202,0.0,0.0,70,0.00,,,-99.99,VWS V12.07,2013-06-20 04:25:00,
2013-06-19 23:30:00,58.2,48.5,29.70,SSW,202,0.0,0.0,70,0.00,,,-99.99,VWS V12.07,2013-06-20 04:30:00,